LAPAN-TUBSAT

Last updated on Tue Jul 08 2025 00:02:28 GMT+0000 (Coordinated Universal Time)

1 29709U 07001A 25188.55543687 .00000422 00000+0 55702-4 0 9992 2 29709 98.1104 175.5955 0011289 222.8227 137.2109 14.85366770999990
UTC large
Height (km)
Speed (km/s)
/
Latitude / Longitude
Inclination (degrees)
Orbital Period (minutes)
Azimuth
Elevation
Range (km)
Doppler Factor

Next 0 passes for location: London (51.5072 / 0.1276)

Sorry there are no passes over London.